Weather History for KHYR - May, 2012

Change the Weather History Date:

Monday, May 28, 2012

  Actual Average Record
Temperature  
Mean Temperature 67 °F -  
Max Temperature 79 °F - - ()
Min Temperature 52 °F - - ()
Cooling Degree Days 2    
Growing Degree Days 17 (Base 50)    
Moisture  
Dew Point 57 °F    
Average Humidity 81    
Maximum Humidity 97    
Minimum Humidity 48    
Precipitation  
Precipitation 0.18 in - - ()
Sea Level Pressure  
Sea Level Pressure 29.65 in    
Wind  
Wind Speed 3 mph (WSW)    
Max Wind Speed 10 mph    
Max Gust Speed 29 mph    
Visibility 9 miles    
Events Rain , Thunderstorm    
T = Trace of Precipitation, MM = Missing Value Source: NWS Daily Summary

Daily Weather History Graph

Daily Weather History Graph

Search for Another Location

Airport or City:

Trip Planner

Search our weather history database for the weather conditions in past years. The results will help you decide how hot, cold, wet, or windy it might be!

Date:

Astronomy

May. 28, 2012 Rise Set
Actual Time 5:20 AM CDT 8:46 PM CDT
Civil Twilight 4:43 AM CDT 9:23 PM CDT
Nautical Twilight 3:55 AM CDT 10:12 PM CDT
Astronomical Twilight 2:52 AM CDT 11:15 PM CDT
Moon 12:48 PM CDT (5/28) 1:08 AM CDT (5/28)
Length of Visible Light 16h 39m
Length of Day
15h 25m
Waxing Crescent, 49% of the Moon is Illuminated
May 28
Waxing Crescent
May 28
First Quarter
Jun 4
Full
Jun 11
Last Quarter
Jun 19
New

Hourly Weather History & Observations

Time (CDT) Temp. Dew Point Humidity Pressure Visibility Wind Dir Wind Speed Gust Speed Precip Events Conditions
12:53 AM 64.9 °F 57.0 °F 75% 29.62 in 10.0 mi Calm Calm - N/A   Mostly Cloudy
1:53 AM 64.0 °F 59.0 °F 84% 29.67 in 10.0 mi Variable 3.5 mph - N/A   Scattered Clouds
2:12 AM 62.6 °F 55.4 °F 77% 29.67 in 10.0 mi Variable 3.5 mph - N/A   Mostly Cloudy
2:53 AM 57.9 °F 55.9 °F 93% 29.64 in 10.0 mi Calm Calm - N/A   Overcast
3:32 AM 59.0 °F 55.4 °F 88% 29.67 in 10.0 mi Calm Calm - N/A   Overcast
3:53 AM 59.0 °F 55.9 °F 90% 29.63 in 10.0 mi ENE 4.6 mph - N/A   Overcast
4:09 AM 59.0 °F 55.4 °F 88% 29.64 in 10.0 mi Calm Calm - N/A   Overcast
4:35 AM 59.0 °F 55.4 °F 88% 29.66 in 10.0 mi Calm Calm - N/A   Overcast
4:53 AM 59.0 °F 55.9 °F 90% 29.65 in 10.0 mi Calm Calm - 0.00 in Rain Light Rain
4:57 AM 59.0 °F 55.4 °F 88% 29.67 in 10.0 mi Calm Calm - 0.00 in   Overcast
5:06 AM 59.0 °F 57.2 °F 94% 29.69 in 10.0 mi Calm Calm - 0.00 in   Overcast
5:53 AM 59.0 °F 57.9 °F 96% 29.64 in 6.0 mi Calm Calm - 0.00 in   Overcast
6:15 AM 60.8 °F 57.2 °F 88% 29.64 in 5.0 mi Calm Calm - N/A   Overcast
6:53 AM 61.0 °F 60.1 °F 97% 29.61 in 8.0 mi Calm Calm - N/A   Overcast
7:53 AM 64.9 °F 63.0 °F 93% 29.59 in 10.0 mi South 8.1 mph - N/A   Clear
8:53 AM 69.1 °F 62.1 °F 78% 29.60 in 10.0 mi SSW 10.4 mph - 0.01 in   Partly Cloudy
9:30 AM 69.8 °F 60.8 °F 73% 29.63 in 10.0 mi WSW 9.2 mph 17.3 mph N/A   Mostly Cloudy
9:53 AM 71.1 °F 62.1 °F 73% 29.62 in 10.0 mi Variable 5.8 mph - N/A   Overcast
10:53 AM 68.0 °F 63.0 °F 84% 29.65 in 8.0 mi Variable 4.6 mph - 0.00 in Rain Light Rain
11:33 AM 66.2 °F 62.6 °F 88% 29.66 in 10.0 mi Variable 6.9 mph - 0.03 in Rain Light Rain
11:53 AM 69.1 °F 63.0 °F 81% 29.65 in 10.0 mi West 6.9 mph - 0.03 in   Mostly Cloudy
12:12 PM 69.8 °F 62.6 °F 78% 29.66 in 10.0 mi West 10.4 mph - N/A   Mostly Cloudy
12:22 PM 71.6 °F 62.6 °F 73% 29.66 in 10.0 mi Variable 4.6 mph - N/A   Mostly Cloudy
12:53 PM 72.0 °F 60.1 °F 66% 29.65 in 10.0 mi Variable 5.8 mph 16.1 mph N/A   Mostly Cloudy
1:03 PM 71.6 °F 60.8 °F 69% 29.66 in 10.0 mi Variable 6.9 mph - N/A   Mostly Cloudy
1:16 PM 73.4 °F 60.8 °F 65% 29.66 in 10.0 mi West 5.8 mph - N/A   Mostly Cloudy
1:53 PM 75.0 °F 57.0 °F 53% 29.64 in 10.0 mi WSW 8.1 mph - N/A   Partly Cloudy
2:53 PM 73.9 °F 55.9 °F 53% 29.63 in 10.0 mi WNW 5.8 mph - N/A   Mostly Cloudy
3:53 PM 77.0 °F 55.9 °F 48% 29.62 in 10.0 mi Variable 3.5 mph - N/A   Scattered Clouds
4:53 PM 75.0 °F 55.9 °F 51% 29.61 in 10.0 mi WSW 4.6 mph - N/A   Scattered Clouds
5:53 PM 75.0 °F 55.0 °F 50% 29.60 in 10.0 mi SSW 5.8 mph - N/A   Mostly Cloudy
6:39 PM 60.8 °F 53.6 °F 77% 29.66 in 2.0 mi Variable 5.8 mph 28.8 mph 0.07 in Thunderstorm Unknown
6:42 PM 59.0 °F 53.6 °F 82% 29.65 in 1.0 mi Variable 6.9 mph 24.2 mph 0.12 in Rain , Thunderstorm Heavy Thunderstorms and Rain
6:49 PM 57.2 °F 55.4 °F 94% 29.67 in 1.8 mi Calm Calm - 0.13 in Rain , Thunderstorm Light Thunderstorms and Rain
6:51 PM 59.0 °F 55.4 °F 88% 29.66 in 4.0 mi Variable 5.8 mph - 0.13 in Rain , Thunderstorm Light Thunderstorms and Rain
6:53 PM 59.0 °F 55.0 °F 87% 29.66 in 7.0 mi Calm Calm - 0.13 in Rain , Thunderstorm Light Thunderstorms and Rain
7:08 PM 59.0 °F 53.6 °F 82% 29.66 in 10.0 mi Calm Calm - 0.00 in Rain Light Rain
7:15 PM 59.0 °F 55.4 °F 88% 29.67 in 10.0 mi Calm Calm - 0.00 in Rain , Thunderstorm Light Rain
7:37 PM 59.0 °F 55.4 °F 88% 29.66 in 10.0 mi Calm Calm - 0.01 in   Overcast
7:53 PM 59.0 °F 55.0 °F 87% 29.66 in 10.0 mi Calm Calm - 0.01 in Rain Light Rain
8:53 PM 57.9 °F 55.9 °F 93% 29.68 in 10.0 mi Calm Calm - 0.00 in   Clear
9:53 PM 57.9 °F 55.9 °F 93% 29.71 in 10.0 mi SW 3.5 mph - N/A   Clear
10:53 PM 57.0 °F 53.1 °F 87% 29.73 in 10.0 mi Variable 3.5 mph - N/A   Clear
11:53 PM 52.0 °F 50.0 °F 93% 29.73 in 9.0 mi Calm Calm - N/A   Clear